Theta_e
348 350 350 349 349 349 349 349 348 348 351 350 352 353 350 350 348 347 345 342 339 339 340 341 341 342 343 341 340 341 343 346 350 348 345 347 349 350 350 349 349 348 349 349 350 352 355 356 356 356 355 354 353 353 353 352 352 351 351 346 341 342 344 345 347 346 345 346 349 350 350 350 351 352 352 351 350 351 350 349 347 347 348 348 348
350 350 350 350 349 350 350 347 345 348 349 349 351 351 349 347 343 342 342 340 340 340 339 342 342 342 341 342 340 340 343 345 349 352 352 352 351 352 352 349 348 349 349 348 350 353 354 355 355 355 354 354 354 353 353 352 351 349 345 340 338 340 343 344 346 346 346 345 347 348 348 349 351 352 352 350 350 350 349 347 346 348 347 347 348
350 350 350 350 349 350 350 348 346 348 347 350 349 348 347 345 340 339 339 337 342 342 338 342 342 340 340 340 341 341 343 345 349 354 358 358 355 354 355 352 348 348 349 349 350 351 352 353 354 354 353 353 353 352 352 350 346 341 339 339 341 343 345 346 346 348 348 347 347 348 349 350 351 351 351 351 350 350 348 346 346 347 347 348 347
349 349 349 350 351 350 350 349 347 346 348 349 348 347 345 342 340 342 341 340 344 341 338 342 342 340 339 340 341 342 344 348 352 355 358 359 357 357 358 357 352 349 349 350 349 350 351 351 352 352 351 349 348 348 347 342 335 335 340 343 344 345 345 346 348 349 350 350 350 350 350 351 351 350 351 350 350 350 347 346 347 348 349 347 341
350 350 350 351 351 350 349 348 347 348 349 349 348 346 347 346 345 346 344 343 344 342 340 341 341 340 340 341 341 341 344 347 351 354 357 358 358 360 361 361 357 353 350 350 350 350 350 351 351 350 347 344 342 342 338 332 331 337 343 344 344 346 346 346 349 350 351 351 351 350 351 351 351 351 350 350 350 349 343 343 347 348 348 342 331
351 350 351 352 350 350 348 347 348 349 348 350 349 346 348 348 345 346 346 344 342 341 341 340 340 340 339 342 341 341 344 345 348 351 354 357 358 358 361 361 360 359 355 351 351 350 349 350 350 347 345 341 337 336 333 332 335 338 340 342 344 345 345 347 349 350 350 350 351 351 351 351 350 351 350 350 349 343 338 342 348 348 347 341 335
353 351 351 350 349 349 348 348 350 349 348 349 347 345 347 346 343 343 342 342 341 340 338 338 339 339 340 342 341 341 343 345 347 349 354 356 356 357 360 360 360 361 360 355 353 352 350 349 349 347 345 342 337 334 332 335 339 336 335 339 343 343 344 346 348 349 350 350 350 350 351 350 349 350 349 348 345 341 341 345 348 348 347 344 344
353 352 351 349 349 348 348 349 350 348 348 346 346 345 345 344 341 341 341 340 341 339 337 338 339 341 341 342 342 342 342 344 345 348 353 356 358 358 360 360 358 359 360 358 355 355 353 350 348 347 346 343 339 335 333 336 338 333 328 332 338 341 342 346 348 349 350 350 350 350 350 350 349 349 348 346 344 344 346 347 347 348 348 346 347
353 352 353 351 350 347 348 350 348 346 346 346 348 346 344 343 341 342 343 341 342 341 339 339 340 341 341 342 343 343 343 346 346 346 350 355 358 359 360 360 358 358 359 359 357 356 355 353 350 347 347 345 341 338 334 334 333 327 323 324 331 336 340 344 347 347 349 349 349 350 349 350 349 348 348 346 346 346 346 347 347 346 346 345 345
353 353 355 353 351 348 349 349 347 346 346 347 348 344 342 342 341 344 344 342 343 342 341 340 340 340 340 341 342 344 345 346 345 346 349 353 355 357 358 358 358 358 360 361 357 355 355 356 354 349 347 346 342 339 336 336 333 327 322 321 326 333 339 344 346 346 347 349 349 349 349 349 349 348 348 347 346 345 344 343 342 342 343 343 343
355 355 356 355 352 349 348 347 345 348 346 345 346 344 342 341 341 344 344 345 345 342 341 340 339 340 341 342 342 343 344 346 347 347 347 350 354 355 354 356 357 357 358 360 358 355 355 357 357 353 350 349 345 340 337 337 337 331 326 322 324 332 339 344 345 345 346 348 348 349 348 349 349 348 347 346 345 344 342 340 340 341 341 342 342
356 355 355 354 351 350 350 347 345 348 346 344 345 343 342 343 343 345 344 344 344 341 339 340 341 341 341 343 344 343 344 345 347 347 347 349 352 353 352 354 357 357 355 356 356 355 356 357 358 355 353 352 350 345 339 336 337 336 331 324 322 331 340 344 344 344 345 347 347 348 348 348 348 348 346 346 345 344 343 342 342 342 342 342 343
357 356 355 355 354 352 350 349 347 347 346 344 344 343 343 344 346 348 347 343 342 339 338 341 342 343 344 344 343 344 346 346 347 345 345 348 352 352 353 354 355 356 354 354 355 355 356 358 357 355 354 353 352 349 344 339 337 338 336 329 322 327 335 341 343 343 345 346 346 347 347 347 347 346 346 346 346 345 345 344 345 345 344 344 344
357 356 354 355 355 353 351 348 347 347 346 345 344 344 344 345 346 347 345 342 340 339 341 341 341 342 343 344 344 347 347 345 347 346 343 346 350 350 349 352 354 354 355 355 356 356 357 358 356 354 354 353 352 351 348 344 339 337 338 334 325 322 328 336 341 343 344 344 345 346 346 346 346 346 346 346 345 345 345 345 345 345 345 344 345
356 356 354 354 354 353 352 349 347 346 345 344 345 346 347 347 346 346 344 341 338 338 340 339 339 342 346 355 359 359 358 350 343 346 346 345 347 349 348 350 353 354 356 358 357 356 356 356 356 354 354 354 353 351 349 346 341 337 337 336 330 323 323 328 335 340 342 344 344 344 345 345 345 345 344 345 344 344 344 344 344 345 344 344 345
355 354 353 354 353 353 351 349 347 346 345 345 347 349 350 349 347 345 342 341 341 338 339 339 339 344 353 364 361 360 368 358 344 343 345 345 346 347 348 349 352 353 356 358 357 355 355 354 355 354 353 354 353 351 350 348 346 341 336 337 333 326 322 323 329 334 337 341 343 343 344 343 343 344 343 343 344 343 343 344 343 343 344 343 343
352 351 351 352 351 352 352 349 346 346 347 347 348 349 351 349 346 345 342 341 342 340 342 343 341 342 349 358 359 363 367 355 347 351 345 344 347 347 347 350 351 352 353 356 357 358 357 355 354 354 353 354 353 352 351 350 350 346 338 336 336 330 324 321 323 328 330 335 340 341 342 342 342 342 342 343 342 342 342 342 343 342 342 342 342
350 348 349 349 351 353 352 350 347 347 349 347 348 347 347 346 342 342 340 341 342 339 340 342 343 343 343 348 350 355 358 347 350 361 351 343 346 347 346 348 350 351 352 356 358 358 359 358 356 354 354 354 355 354 352 351 351 350 343 337 337 334 329 322 320 321 323 327 334 339 340 341 341 341 342 342 342 342 341 340 341 341 341 341 340
352 350 349 349 352 352 353 354 351 349 349 348 347 345 343 343 340 338 339 340 341 339 340 341 342 343 342 343 341 339 346 346 347 360 367 356 344 344 345 346 348 350 354 358 358 357 359 359 356 356 356 356 356 354 353 353 351 351 348 341 337 336 333 327 322 318 318 321 325 333 338 339 339 339 340 340 339 339 339 339 340 340 339 339 340
351 352 351 350 352 353 353 355 354 351 350 348 347 345 342 342 340 339 341 342 342 343 345 345 344 344 342 342 343 341 344 345 343 351 365 359 346 345 345 345 348 349 354 358 358 359 360 358 358 358 358 357 356 354 353 352 351 350 348 342 338 337 336 332 329 323 318 317 319 328 336 338 338 338 338 337 337 336 335 336 336 337 337 337 337
351 352 353 353 354 355 355 355 354 352 351 349 348 347 344 343 342 341 344 346 346 346 348 348 347 346 343 341 343 345 345 345 345 344 347 350 350 350 344 344 348 349 352 357 358 360 361 359 358 359 358 358 356 354 353 352 351 349 348 344 339 337 337 335 334 329 323 317 315 323 333 337 336 337 337 336 336 336 335 334 333 333 334 335 334
351 351 352 353 354 356 356 355 355 353 352 351 349 347 345 343 342 342 345 348 349 349 349 347 347 345 343 342 343 346 348 348 347 343 343 348 350 348 344 344 348 347 348 353 355 359 360 359 358 358 358 358 357 355 354 353 351 351 350 346 341 337 337 336 335 332 327 321 315 317 326 333 336 336 336 336 336 336 335 335 334 333 333 334 334
351 350 352 352 353 355 355 354 354 352 351 351 350 348 347 345 344 343 344 348 351 351 350 347 346 346 343 343 342 344 348 349 347 345 345 348 350 350 347 344 344 345 349 352 352 355 359 360 358 358 358 358 357 356 355 353 352 351 350 348 343 339 337 336 335 332 329 325 319 316 318 326 333 335 335 335 335 334 334 334 334 333 333 334 334
349 349 350 351 353 354 354 354 352 351 351 350 350 350 348 347 347 345 346 348 351 353 351 349 348 347 345 344 343 342 344 345 345 344 346 347 348 350 348 346 346 346 347 351 354 354 358 361 358 356 359 358 357 357 356 354 352 352 351 349 346 343 338 335 335 333 331 327 322 319 317 322 329 334 334 333 333 333 333 333 333 333 334 334 334
350 350 349 349 351 352 352 352 351 351 350 349 350 349 349 349 349 348 348 350 353 353 352 352 350 349 347 346 345 345 345 346 344 345 345 344 345 349 348 345 347 348 347 353 357 357 358 361 358 357 359 358 357 357 356 354 353 352 351 349 347 345 339 336 335 334 332 329 324 321 319 320 325 331 332 332 333 333 333 332 332 332 333 333 333
351 350 350 349 349 350 350 351 350 350 350 350 350 350 350 351 350 350 350 351 353 355 355 354 351 349 348 348 348 346 347 347 346 344 345 343 345 348 348 347 347 345 346 353 357 358 359 359 359 360 360 358 357 358 357 356 354 353 352 350 348 346 341 336 336 335 332 330 327 322 321 323 326 329 331 332 333 332 332 331 331 330 331 332 332
351 350 350 349 350 350 349 349 349 349 350 349 349 351 351 351 352 352 353 353 352 354 356 355 353 351 349 348 348 348 347 347 347 346 344 345 345 344 348 358 362 354 349 353 354 355 356 357 359 360 361 359 359 359 357 356 355 354 353 351 349 346 343 337 335 335 333 331 329 325 325 326 327 329 331 332 332 332 331 331 330 330 331 330 331
352 351 350 350 350 349 348 349 348 348 349 349 349 351 353 353 354 354 355 355 354 354 355 355 354 353 351 351 350 349 350 348 347 346 345 344 346 344 346 353 363 367 362 357 356 355 353 354 357 358 359 361 359 358 358 357 355 354 352 351 351 348 345 341 338 336 334 333 331 329 327 326 327 329 331 332 332 332 331 330 330 331 331 330 330
351 351 350 350 349 350 349 347 347 348 348 349 350 352 353 354 353 354 355 356 355 354 354 355 355 354 353 352 350 350 351 349 348 347 346 345 345 345 346 343 350 364 368 364 363 360 354 353 354 357 359 361 360 358 359 359 357 355 353 351 350 348 347 346 343 340 337 335 333 331 330 328 328 330 331 331 332 332 331 330 331 332 332 331 330
351 350 351 350 350 349 348 347 346 347 349 349 349 351 354 355 352 353 355 355 355 354 353 354 355 355 354 352 351 350 349 348 348 347 347 347 346 345 348 345 346 355 360 362 364 359 353 355 355 357 359 359 360 359 358 358 357 356 354 351 350 349 348 347 346 344 341 338 335 332 331 330 330 332 332 331 332 332 331 331 332 332 332 330 329
351 350 350 350 350 349 349 348 347 347 348 349 351 352 355 355 353 354 356 356 355 354 354 353 353 354 353 353 352 350 349 348 348 348 346 346 347 345 345 346 346 349 351 357 363 361 355 355 356 356 356 357 359 359 358 359 358 356 354 352 351 350 349 348 347 346 345 341 336 333 332 330 331 333 333 331 331 332 332 332 332 332 331 329 328
350 350 349 349 349 349 348 348 347 345 347 348 350 352 354 353 352 352 355 355 354 353 354 355 353 353 353 352 352 350 350 349 347 347 347 345 345 344 344 343 344 346 345 351 362 363 356 353 354 353 352 355 359 359 359 359 357 357 355 353 351 349 349 349 348 346 346 344 339 335 333 331 330 333 334 333 332 332 332 332 332 332 331 329 328
350 349 349 349 348 348 348 348 348 346 346 347 349 350 351 351 349 349 351 352 353 354 355 355 354 352 351 352 351 350 349 349 350 349 347 345 344 343 344 343 342 343 344 346 356 360 355 353 355 354 351 353 359 359 358 358 358 357 355 353 352 351 350 349 349 347 346 345 342 338 336 333 330 332 336 335 333 333 332 333 333 331 331 329 328
352 350 350 350 350 350 350 349 348 347 345 345 347 349 349 349 349 349 349 350 351 353 353 353 353 353 352 352 352 351 350 350 351 350 349 347 345 343 343 343 343 343 344 346 352 356 356 353 353 355 352 351 358 359 358 357 357 355 353 352 352 352 351 350 349 347 346 345 343 341 338 335 331 331 335 335 334 334 333 333 332 331 330 328 327
352 351 352 352 352 352 351 349 349 349 348 346 346 347 348 348 350 350 350 349 351 352 351 351 352 353 353 354 353 351 351 350 350 350 349 348 347 345 345 344 346 347 347 348 350 353 355 353 352 354 352 351 353 355 356 358 357 354 352 352 351 351 350 349 349 348 347 345 344 343 340 337 333 330 332 334 334 334 333 333 332 330 330 328 327
356 355 354 352 351 351 352 352 351 352 351 350 348 348 348 348 349 350 352 351 351 351 351 350 350 351 352 354 354 352 352 351 351 350 351 351 349 349 348 347 348 349 350 349 349 350 350 350 350 350 351 352 351 350 354 357 356 354 353 353 351 350 349 349 349 348 348 347 346 345 343 341 337 331 330 333 334 334 333 333 332 331 330 329 327
355 354 353 352 350 350 351 353 354 353 353 352 351 350 349 349 350 350 351 352 352 352 352 350 349 351 352 354 353 354 353 352 352 353 352 353 352 351 350 350 350 351 351 352 351 349 347 348 349 347 348 351 353 352 351 352 352 352 352 352 352 351 350 350 350 349 348 348 347 347 345 343 341 336 331 331 333 334 332 332 332 331 330 329 327
356 356 355 353 352 351 351 352 354 353 352 353 352 351 351 351 352 352 351 352 353 353 352 351 350 350 349 351 352 353 353 354 355 355 354 353 353 352 352 352 352 353 354 356 356 353 350 349 348 348 348 349 351 352 352 350 351 352 352 351 352 352 351 350 351 351 349 349 348 347 346 344 342 339 334 331 331 333 332 331 331 331 330 330 328
358 358 357 356 354 354 354 353 354 353 353 352 351 351 352 352 353 353 351 351 351 352 352 351 351 349 347 347 348 350 352 355 356 355 354 353 353 354 355 354 353 354 353 354 356 355 354 353 351 350 350 350 350 351 352 352 351 351 351 351 350 351 352 351 352 351 350 349 348 347 346 345 343 341 338 335 331 331 332 331 330 330 331 330 329
355 355 356 356 355 355 355 354 353 353 353 353 352 353 354 353 353 353 352 350 350 350 350 350 349 348 347 347 347 348 349 351 354 355 353 353 354 356 357 356 354 353 352 354 356 356 357 357 356 354 353 353 353 353 354 352 350 350 352 352 351 351 351 352 352 352 350 349 348 347 346 345 343 341 339 337 332 331 331 331 330 329 330 330 329
354 356 357 357 356 356 356 355 354 353 353 353 352 353 354 354 353 353 352 351 350 349 349 348 348 347 348 347 347 348 349 349 352 354 353 353 356 357 357 355 354 354 354 355 357 357 356 357 357 357 357 356 355 356 357 355 352 351 351 352 353 353 352 352 353 352 351 350 348 347 346 344 343 340 338 338 335 332 331 331 331 329 329 329 328
356 358 357 358 358 356 356 355 355 355 354 354 353 353 354 354 354 353 352 350 349 350 349 349 349 348 348 347 348 349 350 351 351 351 352 354 355 355 353 352 353 355 356 356 357 357 357 358 358 357 358 357 355 356 357 356 355 353 353 352 352 353 350 348 349 351 351 351 348 346 345 344 342 340 338 338 337 334 332 332 332 330 328 328 327
356 357 357 357 358 356 356 356 355 354 354 353 354 354 354 353 352 352 353 352 352 351 350 350 349 348 349 350 350 350 350 350 350 350 352 353 353 351 350 350 351 352 355 355 355 354 355 357 357 356 356 356 355 354 355 356 354 352 352 353 352 352 348 343 345 348 350 351 349 347 345 344 342 340 338 337 336 335 333 332 332 331 329 328 327
357 357 356 357 357 357 356 356 355 354 354 353 353 353 353 352 352 351 352 353 353 352 353 353 350 349 349 350 351 350 349 349 351 353 354 355 354 353 353 353 353 353 354 353 353 353 353 355 355 355 355 355 354 354 353 352 350 349 352 354 353 351 348 344 344 347 349 350 349 347 346 345 343 341 339 338 337 335 334 333 332 332 330 329 327
358 357 356 356 356 355 355 354 353 353 353 353 352 353 353 352 351 351 351 351 351 351 353 354 351 349 350 351 351 350 349 350 353 355 355 355 355 355 354 356 356 355 355 354 354 355 354 353 352 353 354 353 353 352 350 349 349 349 352 353 350 348 348 346 347 347 347 348 348 347 346 345 344 341 339 339 337 335 334 333 332 332 331 329 328
357 357 357 356 356 355 354 353 353 352 352 352 352 353 353 353 352 352 351 351 351 351 351 352 351 351 350 350 351 351 351 351 352 353 353 353 354 354 354 355 355 355 355 354 355 356 355 353 350 351 353 351 348 348 347 348 350 350 350 350 348 345 345 347 348 348 347 348 348 347 346 345 344 342 341 340 338 336 335 334 333 332 331 330 328
356 357 356 356 356 355 354 354 353 352 351 352 352 352 352 352 351 352 351 351 351 351 351 351 350 351 351 350 350 350 350 351 351 352 352 353 353 353 353 353 353 354 354 354 354 354 353 352 351 351 352 350 348 347 346 347 349 348 347 348 347 346 345 346 347 347 347 348 348 346 345 345 344 343 342 341 340 338 336 335 334 333 331 331 329
356 355 355 356 355 354 354 353 353 352 352 353 352 352 352 352 352 352 352 351 351 352 352 351 350 350 351 351 351 351 350 351 351 352 352 352 352 351 351 352 352 352 352 352 353 351 350 351 351 350 350 349 349 349 348 348 348 347 344 345 345 346 345 345 346 347 346 347 347 345 343 343 344 342 342 342 340 338 337 336 335 333 332 331 329
356 355 354 355 354 354 354 353 353 353 353 353 353 352 354 353 351 351 351 352 352 352 352 352 352 352 352 352 353 351 350 351 351 351 351 350 350 350 349 349 348 348 348 349 349 349 349 349 349 348 347 346 347 348 347 347 348 347 344 344 344 344 344 344 345 346 346 347 347 345 342 342 343 342 342 342 340 338 337 336 335 334 332 331 329
356 356 356 355 354 354 354 354 354 354 353 353 353 353 353 351 350 350 350 351 351 351 351 351 351 351 351 351 351 350 350 350 349 348 349 348 348 346 344 343 343 343 344 345 345 345 345 345 343 342 341 341 342 344 345 345 346 347 346 345 345 345 344 343 344 344 345 346 347 346 343 342 342 342 341 340 339 338 337 335 335 334 332 331 329
355 356 354 353 352 353 353 353 354 353 353 352 352 352 351 349 349 347 348 351 351 350 350 349 349 350 350 348 348 348 349 348 347 346 346 344 342 340 338 337 337 339 339 339 340 340 338 337 337 336 336 338 339 342 344 345 346 347 347 346 346 345 344 344 344 345 346 346 346 346 345 343 342 342 340 337 337 335 334 332 332 331 330 329 327
Wind_Speed
8 8 8 8 8 11 14 15 13 10 18 27 21 13 11 9 8 10 8 9 7 7 7 3 2 3 8 5 2 7 11 13 13 10 12 14 14 13 15 15 14 14 14 14 13 14 14 13 11 11 12 12 12 12 12 12 12 12 10 10 11 10 9 9 9 9 8 8 8 9 10 10 9 9 8 8 9 10 11 11 10 10 11 11 11
7 8 8 7 9 12 13 13 14 19 28 28 16 11 13 11 10 11 9 8 5 5 6 2 5 5 11 2 5 6 14 14 13 10 10 12 13 14 15 15 14 14 14 14 14 14 13 12 11 11 12 12 12 12 12 12 12 11 10 11 12 12 11 10 10 10 9 8 8 9 10 10 9 9 9 10 11 12 12 11 10 10 10 10 11
8 8 7 7 8 10 9 9 16 28 32 23 14 12 12 11 10 11 10 8 4 2 5 2 4 4 7 4 6 8 17 14 11 11 10 10 11 12 13 14 14 14 14 14 14 13 12 12 12 11 11 12 11 11 11 11 11 11 11 12 13 12 11 11 11 10 10 9 9 9 10 10 10 10 10 11 12 13 12 11 11 10 10 10 10
7 7 8 8 6 6 6 7 18 27 24 16 13 12 10 10 10 8 7 7 5 4 4 3 4 2 1 4 8 16 16 13 11 11 10 9 9 9 10 12 13 14 13 13 13 13 12 12 12 11 11 11 11 11 11 11 11 12 13 13 13 12 11 11 11 11 10 11 10 10 10 11 11 11 11 11 11 12 12 11 11 11 11 10 9
6 8 8 7 5 5 5 11 20 22 16 10 10 12 7 6 8 6 6 8 8 6 5 4 4 3 3 7 12 14 12 11 11 10 9 8 7 7 6 7 10 11 12 12 12 13 12 11 11 11 11 11 11 10 11 12 12 12 12 12 12 12 11 11 12 11 11 12 12 12 12 12 12 12 11 11 11 11 12 11 11 11 11 11 11
6 8 7 6 6 6 8 16 20 14 11 7 7 13 8 5 9 8 8 9 8 5 4 2 5 5 5 10 7 8 12 11 10 9 8 7 5 6 5 4 7 7 9 11 12 12 12 11 11 11 11 11 11 10 11 12 12 12 11 11 11 11 11 12 12 12 13 13 13 13 13 12 12 12 12 12 12 12 12 12 11 11 11 12 12
5 6 6 5 7 11 14 18 15 9 9 8 8 11 10 8 11 11 10 8 6 4 4 5 1 2 8 12 7 7 13 12 9 9 8 7 5 5 5 4 5 3 5 8 10 11 11 11 11 11 11 10 10 10 11 12 11 11 11 11 11 11 12 12 12 13 13 13 13 13 13 13 12 12 12 12 12 12 12 11 11 11 11 11 11
7 7 9 10 13 17 15 12 11 10 8 10 9 10 10 8 10 10 7 5 4 3 5 7 5 12 9 8 7 7 11 11 9 8 7 6 5 4 5 4 4 2 3 5 7 9 10 10 10 10 11 10 10 10 11 11 11 11 12 11 11 11 13 14 13 12 13 13 13 13 12 12 12 12 12 11 11 11 11 11 10 10 10 10 10
10 11 13 14 15 15 11 8 10 10 9 9 8 9 10 8 7 5 3 3 2 2 6 5 13 16 9 4 6 10 9 7 7 6 6 6 5 4 4 3 2 2 2 3 4 6 8 9 9 10 10 10 10 9 10 10 11 12 12 12 12 12 13 14 13 12 13 13 13 12 12 12 12 12 11 11 11 10 10 10 9 9 9 9 9
12 13 14 13 11 11 9 9 10 8 9 9 6 10 12 9 8 3 2 4 1 2 2 6 9 8 6 1 1 8 7 5 7 5 4 5 5 5 3 3 3 2 2 2 2 3 6 7 8 9 9 10 9 9 9 10 11 12 12 12 13 13 14 14 13 12 11 12 12 12 12 11 11 11 11 10 10 9 9 9 8 8 8 9 8
13 14 13 10 9 9 8 9 9 7 10 10 8 11 11 9 11 7 5 4 2 3 4 6 8 5 6 5 2 4 5 7 9 6 5 4 4 5 3 4 6 4 4 3 1 1 3 5 5 6 8 9 9 8 8 9 10 11 12 12 12 13 13 13 13 12 10 11 11 11 11 11 10 10 10 9 9 8 8 8 8 8 8 8 8
14 13 12 10 8 8 8 9 9 8 10 11 10 11 9 7 8 6 7 6 4 5 6 6 11 5 4 4 2 6 5 7 8 6 6 4 2 5 5 4 6 5 3 3 3 2 3 5 4 2 5 6 7 8 7 8 9 10 11 11 12 12 12 13 12 11 10 10 10 10 10 10 9 9 9 9 8 8 8 8 8 8 8 8 8
14 13 12 10 8 8 8 9 9 9 10 10 9 10 9 8 5 3 6 8 8 8 5 5 12 8 3 1 2 5 4 4 8 6 5 5 4 5 4 3 5 6 3 3 4 4 4 5 5 2 2 4 5 6 6 7 7 8 9 9 10 10 10 11 11 11 10 9 9 9 9 10 9 9 9 9 8 9 8 8 8 7 8 8 9
14 12 11 9 7 7 9 9 9 9 10 10 8 7 8 10 7 5 8 7 8 7 2 2 4 6 6 1 2 2 1 2 7 5 2 6 8 4 4 5 6 9 8 5 4 4 5 5 4 2 2 3 4 5 5 6 6 6 7 8 8 8 8 9 10 10 10 9 9 9 9 9 9 8 8 9 9 9 9 9 9 10 11 11 12
13 12 11 10 8 8 8 10 10 9 11 11 9 8 8 9 8 7 9 7 6 8 5 3 2 3 5 3 1 0 1 1 3 5 4 5 9 7 7 8 8 10 12 10 5 5 5 4 4 3 3 3 3 4 2 3 4 4 5 6 7 7 7 7 8 9 9 9 9 8 9 8 9 9 9 9 10 10 10 11 11 11 12 13 14
13 12 11 11 10 9 9 11 11 10 11 11 8 7 8 9 10 9 9 8 7 8 6 3 2 3 3 2 3 1 1 2 3 4 6 5 8 11 8 7 7 8 10 10 8 6 5 4 4 4 3 4 5 5 3 3 2 3 3 5 5 6 6 5 5 7 7 8 8 8 8 8 8 8 9 9 9 9 10 10 11 11 11 12 12
13 13 12 11 10 10 9 10 11 10 10 10 7 7 9 10 12 11 10 11 9 9 5 1 4 4 3 0 2 1 1 4 4 3 6 7 8 12 10 7 8 9 8 9 10 9 7 5 4 4 4 4 6 7 6 4 1 1 2 3 4 4 5 4 4 4 5 6 7 7 7 7 7 7 8 8 8 8 8 9 10 9 10 10 10
13 13 12 11 11 11 9 8 10 11 10 11 10 10 11 11 12 12 11 9 10 12 9 6 7 5 6 6 7 5 4 3 2 1 3 5 7 12 12 9 8 10 10 11 11 9 7 6 4 5 5 5 6 7 6 3 2 2 1 2 2 3 3 3 3 2 3 4 5 6 6 6 6 6 6 6 6 7 7 7 8 8 8 9 9
14 13 13 12 12 13 11 8 9 11 11 12 12 12 13 13 14 15 11 8 11 13 10 9 10 9 7 9 10 10 8 5 2 1 1 3 6 10 12 13 10 13 13 13 10 7 7 6 5 6 7 7 8 8 7 6 5 5 2 2 2 1 2 2 2 1 2 2 4 5 6 6 5 5 6 6 6 6 6 6 6 6 6 7 8
14 13 13 12 12 13 12 11 9 10 11 12 12 12 14 14 13 14 11 8 9 8 5 7 10 13 11 9 9 8 6 7 6 3 3 3 4 4 7 12 14 14 14 13 10 9 8 7 5 7 7 8 8 8 9 8 6 7 7 5 3 2 1 1 1 1 1 1 3 5 7 6 5 5 5 5 6 6 6 6 6 7 6 5 6
14 13 13 13 13 12 13 13 11 10 11 12 12 12 13 14 12 10 7 5 5 3 3 6 10 14 14 11 8 6 8 11 10 8 4 2 2 2 5 9 13 13 13 13 12 11 10 8 7 8 8 8 9 9 8 7 7 7 6 6 5 3 2 1 1 0 0 1 2 5 7 7 6 6 6 6 6 7 6 6 7 8 7 7 6
15 15 15 15 15 14 13 13 12 11 11 12 12 12 13 14 13 9 6 5 6 6 7 9 11 13 15 15 10 5 5 8 10 11 5 1 2 4 4 3 4 10 15 15 12 11 12 10 9 9 9 9 10 10 9 9 10 8 6 7 6 4 4 3 2 1 1 1 2 4 7 7 7 7 6 6 6 6 7 6 6 6 7 7 8
16 16 16 16 16 15 14 14 13 13 13 13 12 12 12 13 14 11 9 9 9 9 11 12 13 14 14 16 14 8 7 9 11 10 5 1 2 5 6 9 8 3 12 15 11 10 13 12 9 8 10 11 10 10 11 10 12 11 8 8 6 5 5 4 3 3 2 2 2 3 5 7 8 8 7 7 6 6 6 7 6 7 7 8 8
16 17 18 17 16 16 15 15 15 15 15 15 14 13 12 12 14 13 12 12 12 12 13 13 14 14 14 14 15 14 13 12 11 9 8 7 5 4 5 7 9 3 9 15 11 11 14 13 9 8 10 11 10 11 12 12 13 13 11 10 9 8 7 6 5 4 3 3 3 3 4 6 8 9 8 8 7 7 7 8 8 8 7 8 8
15 16 18 18 18 18 17 16 16 16 16 16 15 15 14 13 13 13 12 13 14 14 14 14 13 13 13 14 14 14 14 12 11 10 11 8 8 7 5 5 7 5 3 9 9 11 14 12 9 8 10 11 11 13 14 13 15 15 13 13 12 11 10 8 7 6 5 4 4 4 4 5 7 8 8 8 8 8 8 8 8 8 7 8 8
16 15 16 17 18 19 19 17 17 17 16 16 17 16 15 14 13 12 11 12 13 13 14 14 14 14 14 14 14 14 14 12 11 10 11 11 10 8 3 3 7 6 0 6 9 10 12 13 11 11 11 11 12 14 14 14 15 16 15 15 13 12 13 11 9 8 7 6 5 5 5 6 6 8 8 9 9 8 8 8 8 8 8 9 8
17 16 15 15 15 16 18 19 19 19 18 17 17 16 15 15 13 12 12 12 14 14 13 13 14 15 15 15 16 15 14 14 12 12 13 13 12 8 3 3 3 4 1 6 11 10 10 13 15 14 13 12 13 14 14 14 15 16 16 16 14 12 13 13 11 9 8 7 7 6 6 7 7 8 9 9 10 9 9 8 8 9 10 9 9
17 17 15 15 15 14 17 18 19 19 19 18 17 16 16 15 14 14 13 13 13 13 12 13 14 14 14 15 16 15 14 14 14 14 14 13 11 10 7 3 2 2 2 3 7 8 10 13 15 15 14 12 13 14 13 14 15 16 17 17 15 13 12 12 11 11 10 9 8 8 7 8 8 8 9 10 10 10 10 9 9 10 10 10 9
16 17 16 16 16 15 15 16 18 19 18 18 18 18 17 16 15 15 15 14 14 13 12 14 14 14 14 15 16 16 14 14 14 14 15 15 13 11 11 10 6 2 1 1 2 4 7 11 12 13 14 14 14 14 14 14 16 17 18 17 17 15 12 13 12 11 11 11 11 10 9 9 9 10 11 11 11 11 10 10 10 10 10 10 8
15 15 14 14 15 16 16 16 16 16 17 17 18 19 18 17 16 16 16 16 16 15 14 15 14 13 14 16 17 15 14 15 15 14 15 14 12 12 12 12 9 4 2 2 2 3 4 9 10 10 13 17 17 16 15 15 17 19 18 17 18 17 16 16 16 15 13 13 13 13 12 11 11 12 12 12 12 12 11 11 11 11 10 9 8
15 14 14 15 15 16 17 17 16 14 15 16 17 18 18 17 16 16 16 17 17 17 16 15 15 14 16 17 17 16 15 16 15 14 14 13 11 12 12 11 9 7 4 2 2 3 4 7 9 9 11 15 18 18 17 17 18 20 20 18 18 19 18 18 19 18 16 15 15 15 14 13 13 13 13 13 13 13 13 12 12 12 12 11 10
15 15 16 16 15 15 16 17 17 15 15 15 16 18 19 19 17 16 16 17 19 19 18 16 15 15 16 17 17 17 16 16 15 15 15 14 13 13 14 13 11 10 9 6 4 4 6 8 9 9 10 13 17 19 18 19 19 19 19 18 17 19 19 19 21 20 18 16 16 16 16 15 16 16 15 15 15 15 14 14 14 14 13 13 13
15 15 16 17 16 15 15 15 15 16 15 16 17 18 19 20 20 19 17 17 18 18 18 17 17 17 16 17 17 18 17 16 15 15 15 14 14 14 14 14 13 13 13 11 7 5 10 13 11 10 11 13 18 20 19 20 20 19 19 18 17 19 19 20 20 20 19 18 17 18 17 17 18 18 18 17 17 17 16 15 15 14 15 15 15
16 15 15 15 15 15 14 13 13 13 14 16 17 17 18 19 19 18 17 17 19 19 18 18 19 19 18 18 18 17 16 16 16 16 16 15 15 15 16 15 14 13 11 11 10 8 10 13 12 12 11 11 15 17 18 20 18 15 16 15 14 16 18 21 21 21 21 20 20 19 19 19 20 20 21 21 19 19 18 18 17 17 18 17 17
15 14 13 13 14 15 14 13 13 13 12 13 15 16 18 18 17 17 18 18 18 18 18 19 19 19 19 19 21 19 16 16 17 17 16 16 15 15 15 15 14 13 9 4 7 8 7 9 11 12 12 11 13 13 15 18 16 14 17 17 13 13 15 18 22 23 22 22 21 20 21 21 22 22 23 23 21 20 20 20 20 20 21 20 20
11 11 11 11 12 13 13 14 14 14 13 13 13 14 16 17 17 17 17 17 18 17 17 19 20 21 21 21 21 21 18 18 18 18 17 17 16 15 16 14 13 12 9 4 5 8 9 10 12 14 13 12 13 11 11 16 17 17 20 18 15 15 16 17 21 23 23 22 21 20 21 21 23 25 25 25 24 24 24 23 22 22 24 24 24
8 9 12 13 13 13 13 13 14 15 15 14 14 14 14 15 16 17 17 16 16 16 16 17 18 18 19 21 22 21 20 19 19 17 16 16 16 15 16 15 12 12 10 7 7 9 11 13 16 17 14 12 12 11 11 14 15 16 17 16 17 19 19 19 22 22 22 21 21 21 22 22 23 25 26 26 27 27 28 26 25 25 26 27 27
8 9 10 12 13 13 13 13 14 15 15 15 16 16 15 13 12 15 17 15 13 15 17 19 18 16 16 18 20 21 21 20 18 17 16 15 15 15 15 14 11 11 10 8 9 10 11 14 16 17 17 15 15 15 14 14 15 15 15 15 17 20 20 21 24 23 22 23 23 23 24 25 25 25 26 28 29 30 29 29 28 28 29 29 29
9 10 11 11 12 12 12 13 14 14 15 16 17 17 18 18 16 15 15 14 14 15 17 20 22 21 19 19 20 21 22 20 18 17 17 16 14 14 15 13 11 11 12 13 13 13 13 14 15 16 18 18 18 19 18 16 15 16 15 15 17 20 21 23 25 25 24 25 24 23 24 26 27 27 27 28 30 32 31 30 31 31 31 31 30
9 11 12 13 14 14 13 13 14 13 14 15 16 17 18 19 20 19 18 18 18 19 18 20 23 23 22 21 20 20 22 23 21 20 19 18 15 14 14 13 13 15 16 15 15 15 15 15 15 17 17 17 17 18 18 16 15 16 19 19 20 21 20 23 26 26 25 26 25 23 24 26 29 30 30 30 31 33 34 33 33 34 34 34 32
8 9 11 11 11 12 12 12 12 11 12 14 16 17 17 18 20 21 23 22 21 21 20 20 22 22 22 21 20 19 18 21 21 20 20 18 16 15 15 15 16 16 16 17 16 16 16 16 16 17 16 16 17 17 16 18 19 21 22 23 25 23 20 21 26 26 27 27 25 24 25 27 30 32 33 33 34 35 36 36 36 36 36 36 34
10 10 11 10 9 9 9 9 10 10 12 14 14 15 16 17 17 17 19 20 21 22 21 22 22 21 22 22 21 19 15 14 17 18 18 17 16 17 18 19 18 18 17 18 17 17 17 17 18 17 16 17 18 17 18 21 22 21 22 24 26 23 16 15 21 25 27 27 26 26 27 28 29 31 33 35 36 37 38 40 39 39 38 38 36
11 11 11 10 9 9 9 9 10 11 12 13 13 14 16 17 15 13 14 15 17 19 20 22 22 21 21 17 14 15 15 14 17 18 17 17 19 21 22 23 24 23 23 22 21 20 19 19 20 19 18 18 19 19 20 18 14 17 23 26 25 21 16 14 18 21 25 29 29 28 29 29 30 31 33 34 34 35 38 41 42 41 40 40 39
11 10 10 9 8 8 7 7 9 10 13 14 14 13 13 14 13 12 12 11 13 15 15 16 17 17 16 12 10 15 17 16 17 18 16 17 20 21 22 22 23 24 25 25 24 24 24 22 21 21 20 21 21 20 17 12 10 17 24 25 24 21 20 21 22 23 25 28 29 30 30 31 32 32 33 34 33 33 33 36 39 41 42 42 41
9 8 7 7 6 6 6 7 8 9 11 14 13 11 10 11 11 12 11 10 11 13 12 12 12 13 14 15 16 19 19 17 17 17 17 18 19 19 18 19 20 22 23 24 25 26 27 26 25 25 24 23 22 19 14 12 14 19 19 18 19 20 20 24 29 31 28 25 28 30 29 30 32 33 33 34 34 34 33 31 33 37 40 42 42
8 7 7 6 6 6 7 9 11 11 11 11 12 11 11 12 12 11 11 11 11 12 12 11 10 11 15 19 21 20 19 18 19 20 20 20 20 19 19 20 22 22 22 23 23 24 25 26 27 28 27 26 24 20 14 13 16 17 17 18 19 19 22 28 31 31 27 25 27 27 25 27 31 32 34 35 34 35 35 33 32 34 36 39 41
7 7 7 6 6 7 9 10 11 11 10 10 12 12 11 12 11 10 10 10 11 12 12 13 14 16 16 18 20 20 19 19 21 21 21 20 20 19 18 20 22 22 22 22 22 23 24 25 24 24 25 24 23 22 19 18 18 17 18 23 23 21 24 27 27 26 26 26 27 24 22 26 30 31 35 37 34 34 34 33 32 32 34 37 38
6 6 6 6 6 7 9 10 10 10 9 10 11 10 9 9 9 8 8 8 8 9 10 13 16 18 17 15 16 17 16 16 18 19 18 17 17 16 15 17 19 19 21 20 20 21 20 17 15 16 18 19 19 21 20 17 16 16 17 21 22 21 23 22 20 23 26 27 29 27 24 25 27 30 34 34 32 33 34 34 33 32 33 36 38
6 5 5 5 5 7 8 9 9 9 9 10 10 8 7 6 7 8 9 9 8 8 10 12 14 16 16 13 13 14 12 12 14 15 14 14 14 14 13 15 17 18 20 19 18 18 15 13 14 16 19 19 19 20 18 13 12 12 11 15 17 20 23 20 15 18 23 24 27 27 26 27 28 30 32 30 29 33 33 32 34 33 32 35 38
5 5 5 5 5 6 8 8 8 8 8 8 8 6 5 5 5 7 8 8 9 9 9 11 13 15 14 13 12 12 10 10 11 12 12 12 11 12 13 16 17 18 18 17 16 17 19 21 23 23 23 22 19 19 19 17 16 13 11 14 15 19 22 19 15 18 22 23 25 26 27 28 25 24 25 21 22 29 30 27 30 32 32 35 38
4 4 4 5 5 5 6 5 5 6 6 6 5 3 3 4 5 6 5 5 6 7 7 9 11 12 13 11 11 11 11 10 10 10 11 11 11 13 15 16 16 15 15 17 19 22 25 27 27 25 22 20 18 16 15 14 14 13 12 12 14 16 20 20 18 16 14 15 20 23 26 28 23 20 21 15 11 17 23 23 24 27 31 35 37
Wind_Direction
217 222 229 221 228 244 240 237 230 222 236 241 236 219 219 221 221 228 235 259 234 176 218 231 124 35 52 84 108 102 119 117 117 108 95 92 79 71 64 61 66 67 68 67 70 71 69 73 73 73 73 70 67 63 58 55 54 54 48 40 41 48 50 50 51 48 48 51 59 64 65 66 67 72 71 70 76 84 93 96 89 81 75 69 66
222 229 235 231 232 247 242 230 229 228 233 236 225 205 218 211 206 221 219 243 250 171 220 5 63 39 48 43 266 101 113 114 116 115 100 87 73 71 68 64 68 68 68 68 70 71 72 74 71 72 73 70 68 63 60 59 56 50 39 34 39 47 48 50 52 48 48 50 59 67 67 65 68 74 72 70 78 86 91 92 87 81 76 72 69
226 229 230 229 228 251 252 218 227 235 231 226 214 203 210 199 200 219 215 230 257 184 217 69 50 10 37 327 286 104 112 108 109 113 105 91 75 71 70 68 67 68 71 71 72 74 74 75 74 74 73 71 68 64 64 60 52 43 40 44 46 47 47 49 52 50 51 55 61 66 68 69 71 75 75 75 82 87 90 90 89 85 80 77 74
222 215 211 220 222 251 257 213 229 236 224 210 208 202 202 194 200 215 202 223 244 223 219 99 52 335 77 50 77 97 102 99 104 110 108 99 77 69 73 70 66 67 70 72 73 75 76 76 77 76 72 68 65 63 62 54 46 46 48 51 51 49 49 51 54 54 56 59 62 66 69 73 74 76 79 82 87 90 92 94 92 87 82 79 76
208 207 210 216 217 243 241 226 236 234 210 197 202 195 205 208 204 206 188 218 236 236 238 139 118 210 173 81 84 92 90 95 102 103 105 103 86 86 91 68 66 70 70 72 74 74 77 79 78 76 72 67 65 62 57 52 50 54 55 55 56 53 51 56 56 55 59 61 63 68 71 75 77 79 82 86 89 91 93 94 90 84 81 78 77
205 210 224 223 213 230 232 230 232 223 199 199 196 187 201 215 199 203 204 227 241 240 264 160 153 199 132 95 88 94 100 104 97 95 102 105 97 106 120 73 69 76 71 72 73 73 75 77 77 73 71 68 67 64 59 58 58 58 61 61 61 58 58 62 58 56 60 62 64 68 73 75 78 81 84 87 88 89 91 91 86 82 81 80 79
203 201 227 232 215 220 230 234 221 202 203 197 187 187 201 215 201 200 203 228 245 216 276 280 189 85 93 103 103 108 109 100 89 99 108 111 110 121 135 109 97 104 85 78 74 75 72 72 75 70 68 67 67 66 62 62 61 58 59 62 63 59 62 65 60 57 61 64 66 68 73 76 79 83 86 87 88 89 89 88 84 81 82 82 81
197 192 216 231 230 220 218 225 205 196 206 197 199 196 202 213 207 213 206 214 231 181 263 281 61 59 66 100 100 108 108 96 98 107 109 121 125 128 135 119 112 123 110 97 83 80 77 71 69 67 64 61 63 64 61 62 61 57 53 57 61 57 62 67 62 60 62 64 67 69 74 79 83 87 88 88 87 88 87 86 85 85 86 84 83
195 196 215 228 234 223 203 194 200 204 197 200 210 191 196 198 191 232 228 196 274 319 307 360 61 57 57 79 91 110 109 92 103 107 113 133 134 125 137 136 113 109 124 117 95 86 85 79 68 66 64 57 59 59 57 56 54 53 51 52 56 56 62 67 65 64 63 64 68 73 78 82 86 89 90 90 90 90 90 89 89 91 90 88 87
198 202 218 227 231 225 206 188 203 208 186 197 203 185 206 199 177 234 198 182 277 300 311 68 68 44 69 61 16 123 138 118 113 117 116 131 142 133 138 151 147 174 170 152 126 94 89 89 74 66 67 60 56 55 53 51 47 46 48 50 54 57 62 66 68 68 65 65 69 74 80 84 87 91 93 92 92 92 90 91 91 91 89 89 90
202 205 213 221 224 216 199 187 199 203 184 195 201 197 217 196 179 216 212 212 265 232 226 120 88 34 113 152 337 84 122 123 116 112 112 107 129 143 163 168 167 201 204 199 220 105 96 97 87 69 70 67 59 55 48 46 44 42 43 46 52 57 62 65 67 70 70 71 72 74 80 85 89 92 94 92 91 90 89 89 89 88 87 87 90
202 205 203 208 221 205 186 190 196 197 194 201 205 204 215 197 184 205 204 215 226 237 256 142 110 86 157 161 45 63 77 122 127 115 130 131 111 149 175 172 171 203 226 217 218 164 131 116 119 95 69 70 64 61 53 44 41 40 41 43 49 57 63 65 67 70 73 76 78 78 80 85 90 92 91 89 88 86 86 84 82 83 83 83 84
201 204 202 211 224 202 188 197 198 196 201 206 208 203 200 206 215 194 198 229 235 235 253 143 118 119 163 303 84 97 52 110 141 141 150 145 134 155 180 178 177 192 199 195 194 173 160 149 154 169 86 82 77 75 63 45 37 35 41 42 47 56 64 68 70 73 76 78 81 82 83 86 88 89 89 89 89 88 88 87 86 86 83 82 83
198 200 202 213 216 199 193 197 201 196 198 207 215 207 192 205 227 215 210 241 254 245 247 124 125 126 144 127 96 125 6 113 140 160 175 142 150 180 216 200 180 187 189 188 197 187 186 180 166 170 129 102 92 87 59 30 27 33 40 43 47 55 64 71 75 78 81 81 82 82 84 88 88 89 93 95 95 92 91 91 91 91 91 92 91
195 198 200 210 208 201 193 192 204 198 197 214 213 199 195 210 238 241 236 255 252 242 236 212 218 155 154 151 126 229 254 197 158 167 166 152 164 183 206 193 173 182 187 185 196 201 191 180 161 164 149 125 112 105 82 352 12 36 39 43 49 54 62 71 79 84 88 88 88 87 86 89 92 92 94 96 97 96 96 96 96 96 98 98 96
193 197 197 205 204 205 200 192 203 197 197 217 211 191 199 220 240 246 258 271 254 247 239 197 225 217 189 153 159 184 285 217 231 184 179 203 186 172 184 197 183 187 192 188 190 189 187 182 173 179 170 149 134 135 182 258 345 42 41 45 49 55 62 68 78 87 93 96 97 97 96 94 94 95 96 97 98 100 101 101 101 102 102 101 100
193 196 198 203 200 207 211 194 194 194 198 214 215 204 209 220 239 250 252 256 269 299 314 245 259 236 200 251 168 162 282 197 213 222 202 217 196 171 174 192 194 197 193 187 183 177 185 200 199 198 188 157 144 163 210 246 275 49 40 45 46 53 63 65 74 87 97 106 106 105 107 104 102 102 102 104 104 106 108 108 107 108 107 105 105
195 197 200 201 199 206 214 199 191 195 201 209 212 216 219 220 233 244 240 237 260 290 303 287 276 244 210 237 224 211 250 238 197 207 208 211 186 177 181 175 192 206 175 167 181 182 195 212 212 206 183 164 173 188 214 230 217 221 28 22 25 53 63 63 69 81 97 116 118 118 119 115 117 118 115 116 115 114 112 111 113 114 114 113 112
197 199 201 201 201 203 210 211 201 198 205 215 217 216 218 219 224 229 229 229 242 253 268 280 288 282 255 250 241 225 235 266 272 154 104 268 215 194 182 158 175 207 178 162 185 192 201 210 206 198 170 170 200 198 192 198 220 241 266 298 307 48 69 69 69 72 102 135 134 133 130 125 129 129 125 127 127 125 120 118 117 115 118 119 118
202 199 198 199 200 203 209 214 213 206 207 219 226 225 226 229 229 224 221 226 230 234 250 266 285 291 284 279 277 271 270 285 284 227 175 244 252 219 185 157 160 186 179 170 188 192 197 205 209 204 177 180 203 195 195 207 229 243 248 258 259 236 158 102 70 52 87 148 148 145 139 133 136 135 133 135 133 129 128 131 132 128 126 123 126
206 202 198 199 197 201 209 213 219 220 215 217 222 230 237 246 249 231 218 231 226 218 255 258 272 283 288 292 288 288 301 307 302 278 247 235 287 269 207 175 151 160 172 173 184 193 191 187 195 197 186 193 200 194 210 234 240 237 239 246 247 234 213 196 204 353 39 163 157 157 155 148 143 141 141 138 134 130 124 128 132 132 131 129 130
205 207 206 207 201 201 208 213 218 224 226 227 225 228 233 242 255 249 231 247 246 242 252 256 261 266 278 291 287 253 266 294 297 291 304 21 290 287 284 263 167 169 177 175 182 194 189 187 190 190 196 206 203 200 213 234 241 242 244 243 241 232 224 217 219 252 284 253 186 170 170 167 155 149 152 148 142 140 135 132 131 131 133 135 136
202 204 206 209 206 204 209 213 218 223 229 233 234 235 232 232 244 247 236 239 245 248 248 249 255 259 265 277 284 270 234 235 252 270 284 265 296 315 318 313 306 209 162 168 183 190 187 193 195 193 207 213 206 207 211 221 239 250 245 235 237 239 232 223 221 235 251 249 228 192 181 178 168 161 163 160 155 157 155 152 147 143 142 139 138
201 201 204 206 208 208 211 216 218 222 227 232 235 237 236 232 234 235 232 233 234 239 246 248 252 257 259 263 272 273 262 256 262 274 266 233 217 256 273 289 305 342 137 159 172 180 187 196 202 200 209 213 207 208 208 214 234 246 242 234 240 248 239 227 224 225 236 244 231 208 188 180 176 171 169 166 164 164 160 154 148 144 143 140 137
211 206 205 206 209 211 212 217 221 223 225 229 234 238 241 241 240 235 228 227 228 232 240 247 251 255 258 260 263 265 269 275 281 293 295 263 220 232 278 311 305 315 139 163 165 169 185 200 213 208 207 212 211 211 210 214 229 238 242 243 243 246 242 231 225 222 223 234 228 213 200 188 181 177 173 167 163 160 156 154 153 150 149 147 143
223 218 211 208 209 209 212 218 222 226 228 231 235 238 241 244 248 244 231 226 227 230 234 240 246 250 252 259 264 264 268 273 269 273 286 278 250 234 237 275 275 290 341 179 185 179 189 204 212 207 207 209 212 217 215 215 229 238 242 245 243 243 242 232 226 225 222 226 228 215 204 198 189 183 178 170 165 163 163 165 165 166 165 160 154
221 227 224 217 212 208 213 219 222 224 227 231 236 237 237 240 245 246 241 237 229 226 232 238 244 248 248 255 262 265 270 276 275 266 262 265 271 273 258 192 241 299 344 176 193 203 209 207 205 205 208 208 212 224 225 217 228 241 241 240 242 244 241 233 228 228 223 222 226 218 204 201 197 189 184 178 175 173 174 177 176 179 178 170 166
214 223 226 225 223 216 215 220 221 221 223 228 232 234 234 236 241 242 243 247 238 227 231 241 248 254 254 256 260 262 265 269 275 277 274 278 290 297 291 252 191 253 263 179 189 212 219 212 212 213 210 210 214 223 230 223 225 238 239 236 243 246 237 231 231 232 230 224 222 220 209 205 202 195 192 187 185 183 182 180 180 183 180 173 171
215 220 222 222 226 227 227 229 226 218 219 227 229 228 230 231 235 240 240 245 248 242 239 243 249 256 258 260 260 258 259 261 265 271 277 286 292 293 286 273 259 225 191 215 218 219 212 211 221 223 212 212 217 219 227 229 226 233 237 234 240 246 237 233 233 234 236 232 225 221 213 208 204 200 200 196 192 191 188 184 181 182 179 175 176
216 216 220 221 226 232 232 237 237 224 216 224 227 225 227 228 231 237 239 241 246 248 247 246 247 252 257 262 263 262 262 263 263 263 265 270 273 272 271 269 270 260 187 195 258 273 237 216 222 229 220 219 225 224 225 230 229 233 236 231 235 242 242 240 239 237 239 239 231 223 216 212 206 203 204 201 199 197 192 189 187 186 187 188 195
217 213 217 223 225 228 229 232 240 235 220 220 224 223 224 227 230 234 237 239 242 246 247 246 245 248 255 263 268 270 269 268 267 269 272 275 273 272 275 275 273 268 245 219 239 255 251 234 231 238 238 233 232 228 224 227 231 233 235 234 233 238 242 242 240 238 239 240 234 227 221 215 210 208 207 205 203 199 196 195 194 195 196 199 204
220 215 219 224 222 223 228 230 233 234 226 221 223 223 222 225 230 233 237 239 241 242 243 244 245 247 252 258 264 268 270 272 273 274 277 280 277 276 278 275 267 265 261 240 221 237 256 263 257 253 255 244 233 228 224 225 230 232 234 236 233 234 238 240 239 238 238 238 235 232 227 220 215 209 206 208 205 200 201 202 201 203 204 205 204
222 219 222 227 227 226 226 227 230 234 231 223 222 225 223 223 227 232 237 240 239 237 239 242 244 248 253 255 258 262 266 270 274 276 278 280 281 279 279 277 270 266 256 233 216 243 259 263 264 265 268 246 227 229 230 227 229 230 229 229 230 232 235 237 238 236 235 237 237 236 234 229 222 211 205 209 208 204 207 208 209 210 208 209 205
222 222 224 226 227 227 226 226 231 240 241 232 226 227 229 228 227 232 237 239 238 237 239 242 244 248 255 258 260 262 263 264 266 270 273 275 279 279 283 290 292 291 275 240 220 220 243 259 262 266 276 252 226 231 235 228 224 226 226 227 235 243 242 240 240 237 234 236 238 239 238 234 229 217 209 210 211 209 210 211 213 216 214 213 208
221 223 226 228 228 229 233 236 239 248 254 248 239 235 235 236 234 236 239 240 241 239 239 243 245 248 253 258 262 263 260 259 261 263 267 271 276 279 282 288 294 307 321 279 231 225 242 266 267 266 275 264 246 250 243 228 223 230 235 236 241 249 249 244 244 244 240 238 240 243 243 239 235 227 217 214 214 213 215 215 214 217 219 217 212
210 217 228 242 249 245 240 239 242 247 253 254 253 247 242 242 242 240 240 243 248 248 245 247 246 245 247 251 256 259 260 261 262 263 267 271 276 281 282 283 290 308 325 318 260 250 249 259 264 264 268 265 263 264 241 225 227 233 235 233 229 233 240 239 242 248 248 244 242 245 246 242 239 234 225 218 216 216 219 219 216 220 223 221 219
214 226 234 242 253 253 246 243 244 247 251 255 256 256 254 252 246 241 241 245 253 257 256 257 257 253 253 253 251 251 255 259 262 263 265 268 271 276 278 280 290 301 305 299 281 265 251 252 257 260 265 269 267 262 245 240 244 241 236 234 230 229 232 231 232 242 249 247 244 243 243 241 240 238 232 226 221 220 221 220 219 222 225 225 225
221 236 240 237 239 242 242 247 248 247 249 251 253 257 258 259 257 252 248 248 256 259 254 254 257 259 264 269 267 260 254 253 255 258 261 266 271 275 277 284 294 295 294 293 287 279 268 261 258 259 264 269 266 262 262 264 261 251 240 237 235 233 232 231 229 232 240 244 243 240 240 239 238 238 236 233 228 225 225 224 222 224 227 229 229
217 230 238 241 242 239 239 246 250 249 248 248 250 252 250 252 259 261 255 250 253 257 255 254 253 252 255 265 275 278 270 256 248 252 259 263 267 269 270 276 285 286 287 286 278 275 274 269 266 266 268 269 266 263 264 266 260 249 235 225 229 234 233 232 230 227 231 238 240 241 243 243 240 237 237 237 234 229 228 228 227 227 228 230 231
232 238 238 242 244 242 238 241 247 250 249 247 245 246 248 251 255 259 262 259 258 261 264 262 259 258 260 259 259 270 277 269 253 247 252 255 258 262 263 264 270 276 279 278 273 268 266 265 267 267 265 263 260 257 256 250 240 237 234 229 231 234 231 230 231 229 228 233 236 238 242 242 239 235 235 237 236 233 230 229 230 230 230 231 232
232 234 237 241 243 243 240 242 249 251 250 250 248 248 252 257 258 261 264 264 263 265 268 267 264 263 267 266 255 253 269 277 271 264 262 258 255 261 268 271 274 275 273 271 268 265 262 262 263 262 259 256 253 248 243 239 237 240 240 234 233 231 224 226 233 233 231 233 234 234 236 237 234 231 232 234 235 233 230 229 231 232 231 232 232
225 226 232 237 241 247 248 251 256 258 259 262 261 259 259 262 265 268 270 270 267 264 266 268 268 267 268 270 267 262 263 273 278 279 276 269 263 265 273 276 275 272 271 272 270 267 265 263 261 259 256 254 252 246 242 245 248 247 240 232 230 225 213 226 245 243 236 232 228 228 231 232 229 228 230 233 234 233 231 229 230 231 231 232 232
232 234 236 236 241 249 253 258 265 268 269 266 262 262 263 265 268 272 277 279 274 270 271 270 269 275 280 279 279 280 276 269 266 266 267 270 273 276 279 279 275 271 270 271 271 270 268 265 264 263 260 259 260 257 254 256 258 254 246 235 225 210 193 213 245 246 236 227 222 225 230 229 226 226 227 230 232 231 231 230 229 230 231 231 231
234 238 239 237 244 253 259 270 278 281 281 276 269 266 265 262 262 267 271 274 274 275 278 276 276 285 291 289 283 277 270 263 261 260 264 275 281 283 285 284 278 274 272 270 271 272 269 268 269 268 266 267 269 266 266 277 286 272 259 241 225 216 206 211 228 236 235 227 219 224 233 230 225 224 226 229 229 228 231 232 230 230 230 231 230
232 237 240 238 246 258 263 269 270 269 278 286 287 285 279 273 272 275 273 271 273 273 272 277 284 285 277 273 273 268 261 256 258 261 266 272 276 279 282 282 279 277 275 273 273 273 271 270 270 269 270 273 277 281 287 289 278 273 268 248 231 228 224 226 235 241 242 235 221 221 232 230 223 222 226 229 230 228 229 232 232 230 230 231 230
229 233 237 234 235 244 248 253 256 255 258 271 278 278 280 282 284 286 281 272 269 271 274 276 275 268 264 270 277 276 270 264 263 265 268 269 271 275 280 283 283 283 282 280 280 280 279 277 274 273 275 276 279 287 292 278 266 269 276 267 250 238 237 243 248 248 246 241 227 221 229 231 223 223 228 230 230 230 229 231 233 231 230 232 230
230 231 232 231 236 245 248 249 252 254 253 260 270 273 274 277 278 282 287 280 269 267 273 274 271 267 268 274 279 280 276 270 267 269 272 272 275 282 288 288 287 287 287 286 286 286 286 284 280 280 283 283 283 285 282 275 274 273 273 272 269 261 253 251 252 250 245 242 233 221 227 234 225 222 230 232 230 230 229 230 233 233 231 231 229
231 232 227 224 235 248 254 252 250 254 263 274 280 280 280 281 279 282 289 288 278 273 273 273 273 274 274 275 276 278 280 277 271 272 277 283 290 296 296 291 288 289 291 292 295 296 296 296 294 294 298 303 306 302 294 286 284 278 271 271 271 267 260 256 255 252 247 245 239 227 227 237 229 222 229 232 229 230 229 227 230 233 232 230 227
226 230 225 225 233 244 252 256 257 260 270 278 281 287 297 297 294 295 294 288 279 275 275 275 277 280 282 283 284 284 284 279 275 277 283 292 298 299 295 294 295 295 295 296 298 297 295 295 297 297 302 308 312 313 315 318 310 292 260 249 251 250 251 253 256 255 250 248 245 234 227 235 233 223 226 231 229 229 230 228 228 229 232 230 227
226 226 225 231 236 244 253 264 272 275 280 283 282 286 296 298 305 312 307 294 281 275 276 279 280 282 288 294 293 286 279 275 277 281 284 288 295 296 297 301 301 298 299 300 298 293 289 290 295 299 304 306 306 308 313 316 310 292 250 240 250 245 240 241 247 257 258 255 252 242 231 235 236 223 220 227 227 226 229 230 228 226 227 227 225
240 232 234 246 260 273 275 274 280 284 284 284 283 283 288 300 316 318 310 299 289 281 283 286 282 282 288 292 286 273 266 269 276 281 284 290 298 302 305 306 302 295 292 290 291 294 297 300 305 311 316 317 316 315 313 309 303 289 271 273 275 251 238 242 247 252 259 261 257 245 231 233 237 225 215 212 216 223 226 229 229 224 217 214 213